Weather History for Beckley, WV

Change the Weather History Date:

Friday, August 30, 2013

  Actual Average Record
Temperature  
Mean Temperature 75 °F 68 °F  
Max Temperature 84 °F 78 °F 95 °F (1953)
Min Temperature 66 °F 59 °F 39 °F (1965)
Degree Days  
Heating Degree Days 0 1  
Month to date heating degree days 15 6  
Since 1 June heating degree days 27 53  
Since 1 July heating degree days 20 14  
Cooling Degree Days 10 4  
Month to date cooling degree days 132 159  
Year to date cooling degree days 529 492  
Since 1 June cooling degree days 462 451  
Growing Degree Days 25 (Base 50)    
Moisture  
Dew Point 64 °F    
Average Humidity 72    
Maximum Humidity 90    
Minimum Humidity 54    
Precipitation  
Precipitation 0.00 in 0.09 in 1.08 in (2006)
Month to date precipitation 4.83 3.39  
Year to date precipitation 29.65 29.58  
Snow  
Snow 0.00 in - - ()
Month to date snowfall 0.0  
Since 1 September snowfall 72.0  
Snow Depth 0.00 in    
Sea Level Pressure  
Sea Level Pressure 29.98 in    
Wind  
Wind Speed 5 mph (South)    
Max Wind Speed 13 mph    
Max Gust Speed 18 mph    
Visibility 9 miles    
Events      
T = Trace of Precipitation, MM = Missing Value Source: NWS Daily Summary

Daily Weather History Graph

Daily Weather History Graph

Search for Another Location

Airport:

Trip Planner

Search our weather history database for the weather conditions in past years. The results will help you decide how hot, cold, wet, or windy it might be!

Date:

Astronomy

Aug. 30, 2013 Rise Set
Actual Time 6:53 AM EDT 7:56 PM EDT
Civil Twilight 6:26 AM EDT 8:23 PM EDT
Nautical Twilight 5:53 AM EDT 8:55 PM EDT
Astronomical Twilight 5:20 AM EDT 9:28 PM EDT
Moon 1:33 AM EDT (8/30) 4:07 PM EDT (8/30)
Length of Visible Light 13h 57m
Length of Day
13h 03m
Waning Crescent, 29% of the Moon is Illuminated
Aug 30
Waning Crescent
Sep 5
New
Sep 12
First Quarter
Sep 19
Full
Sep 26
Last Quarter

Hourly Weather History & Observations

Time (EDT) Temp. Heat Index Dew Point Humidity Pressure Visibility Wind Dir Wind Speed Gust Speed Precip Events Conditions
12:51 AM 70.0 °F - 66.0 °F 87% 30.00 in 10.0 mi SE 3.5 mph - N/A   Clear
1:09 AM 69.8 °F - 66.2 °F 88% 30.11 in 10.0 mi SE 5.8 mph - N/A   Mostly Cloudy
1:31 AM 69.8 °F - 64.4 °F 83% 30.11 in 10.0 mi SE 9.2 mph - N/A   Mostly Cloudy
1:44 AM 69.8 °F - 64.4 °F 83% 30.10 in 10.0 mi SSE 8.1 mph - N/A   Scattered Clouds
1:51 AM 69.1 °F - 64.0 °F 84% 29.99 in 10.0 mi SSE 8.1 mph - N/A   Partly Cloudy
2:51 AM 68.0 °F - 63.0 °F 84% 29.98 in 10.0 mi SE 10.4 mph 17.3 mph N/A   Clear
3:51 AM 68.0 °F - 63.0 °F 84% 29.98 in 9.0 mi SE 8.1 mph - N/A   Clear
4:51 AM 66.9 °F - 63.0 °F 87% 29.98 in 8.0 mi SE 3.5 mph - N/A   Clear
5:51 AM 66.0 °F - 63.0 °F 90% 30.00 in 7.0 mi SSE 4.6 mph - N/A   Clear
6:51 AM 66.0 °F - 63.0 °F 90% 30.00 in 6.0 mi SE 8.1 mph - N/A   Clear
7:51 AM 68.0 °F - 63.0 °F 84% 30.01 in 7.0 mi Variable 5.8 mph - N/A   Clear
8:51 AM 71.1 °F - 64.0 °F 78% 30.01 in 8.0 mi South 6.9 mph - N/A   Clear
9:51 AM 73.0 °F - 64.9 °F 76% 30.02 in 9.0 mi SSE 5.8 mph - N/A   Clear
10:51 AM 77.0 °F - 64.9 °F 66% 30.02 in 10.0 mi Variable 5.8 mph - N/A   Partly Cloudy
11:51 AM 78.1 °F - 64.9 °F 64% 30.00 in 10.0 mi Variable 4.6 mph - N/A   Mostly Cloudy
12:51 PM 79.0 °F - 64.9 °F 62% 29.98 in 10.0 mi SW 6.9 mph - N/A   Scattered Clouds
1:51 PM 79.0 °F - 64.9 °F 62% 29.96 in 10.0 mi Variable 3.5 mph - N/A   Mostly Cloudy
2:51 PM 80.1 °F 81.5 °F 63.0 °F 56% 29.95 in 10.0 mi SW 4.6 mph - N/A   Scattered Clouds
3:51 PM 82.9 °F 84.4 °F 64.0 °F 53% 29.92 in 10.0 mi WSW 5.8 mph - N/A   Partly Cloudy
4:51 PM 82.9 °F 84.6 °F 64.9 °F 54% 29.92 in 10.0 mi West 10.4 mph 18.4 mph N/A   Partly Cloudy
5:51 PM 82.0 °F 83.8 °F 64.9 °F 56% 29.91 in 10.0 mi Variable 4.6 mph - N/A   Partly Cloudy
6:51 PM 80.1 °F 81.5 °F 63.0 °F 56% 29.91 in 10.0 mi West 5.8 mph - N/A   Clear
7:51 PM 75.9 °F - 64.9 °F 69% 29.91 in 10.0 mi Calm Calm - N/A   Clear
8:51 PM 72.0 °F - 64.9 °F 78% 29.91 in 10.0 mi South 4.6 mph - N/A   Clear
9:51 PM 70.0 °F - 64.0 °F 81% 29.91 in 10.0 mi South 4.6 mph - N/A   Clear
10:51 PM 69.1 °F - 64.0 °F 84% 29.92 in 10.0 mi South 4.6 mph - N/A   Clear
11:51 PM 68.0 °F - 64.0 °F 87% 29.92 in 10.0 mi Calm Calm - N/A   Clear